Content
SEND FEEDBACK

Daily
Averages
Monthly
Summary
United States of America

WHITESON, OREGON


Home > North America > United States > Oregon
Elevation: 43 meters     Latitude: 45 10N     Longitude: 123 13W

WEATHER
 
SELECT A DAY
Number of Records: 200,971;   Date Range: 1/1/95 - 9/18/14
 
SHARE

PRINT THIS DATA

[ ← Previous Day ]
WEATHER ALMANAC - 31 JANUARY, 2013
[ Next Day → ]
[ °F ]   °C
Weather ElementAverageHighLow
Temperature8.4 °C13 °C (3:03 pm)6.1 °C (7:56 am)
Dewpoint6.8 °C7.8 °C (9:56 am)5.6 °C (3:56 pm)
Humidity90.2 %100 % (1:09 am)63 % (3:03 pm)
Barometer1029.8 hPa1031.5 hPa (1:56 am)1027.4 hPa (6:56 pm)
Wind Speed4.3 km/h14.8 km/h (12:56 pm)
Weather ElementAverage
Visibility12.4 km
Wind DirectionE (94.6 °)

Weather ElementTotal
Precipitation---
Heating Degree Days8.8 (Base 18.3)
Averaged from 37 records on 31 January, 2013
WEATHER CONDITIONS BREAKOUT
WIND DIRECTION BREAKOUT
WEATHER BY HOUR - 31 JANUARY, 2013
[ °F ]   °C
Local TimeTemperatureDewpointHumidityBarometerVisibilityWind DirectionWind SpeedGust SpeedPrecipitationEventsConditions
1:09 AM7 °C7 °C100 %1031.2 hPa16.1 kmSouth (170°)5.6 km/hOvercast
1:56 AM7.2 °C7.2 °C100 %1031.5 hPa11.3 kmCalmOvercast
2:37 AM7 °C7 °C100 %1031.2 hPa12.9 kmSouth (170°)5.6 km/hOvercast
2:49 AM8 °C7 °C93 %1031.2 hPa14.5 kmSouth (170°)5.6 km/hOvercast
2:56 AM7.8 °C7.2 °C96 %1031.2 hPa12.9 kmSSE (160°)5.6 km/hOvercast
3:05 AM7 °C7 °C100 %1030.8 hPa11.3 kmCalmOvercast
3:56 AM7.2 °C6.7 °C97 %1030.8 hPa11.3 kmCalmOvercast
4:03 AM7 °C7 °C100 %1030.8 hPa14.5 kmCalmOvercast
4:52 AM7 °C7 °C100 %1030.5 hPa6.4 kmCalmOvercast
4:56 AM6.7 °C6.7 °C100 %1030.8 hPa6.4 kmCalmOvercast
5:06 AM7 °C7 °C100 %1030.5 hPa4.8 kmCalmOvercast
5:25 AM7 °C7 °C100 %1030.5 hPa4.8 kmCalmOvercast
5:36 AM7 °C7 °C100 %1030.1 hPa4.8 kmCalmOvercast
5:46 AM7 °C7 °C100 %1030.5 hPa2.4 kmCalmOvercast
5:56 AM6.7 °C6.7 °C100 %1030.5 hPa2.4 kmCalmOvercast
6:05 AM7 °C7 °C100 %1030.1 hPa1.6 kmCalmOvercast
6:15 AM7 °C6 °C93 %1030.1 hPa4 kmSE (140°)5.6 km/hOvercast
6:22 AM7 °C6 °C93 %1030.1 hPa11.3 kmCalmOvercast
6:56 AM6.7 °C6.7 °C100 %1030.5 hPa16.1 kmCalmOvercast
7:56 AM6.1 °C6.1 °C100 %1030.5 hPa14.5 kmCalmOvercast
8:56 AM7.2 °C6.7 °C97 %1030.8 hPa16.1 kmSSE (150°)5.6 km/hOvercast
9:23 AM8 °C7 °C93 %1030.5 hPa16.1 kmSSE (150°)5.6 km/hOvercast
9:56 AM8.3 °C7.8 °C97 %1030.8 hPa16.1 kmSSE (160°)7.4 km/hOvercast
10:56 AM9.4 °C7.8 °C90 %1030.5 hPa16.1 kmSSE (160°)11.1 km/hMostly Cloudy
11:56 AM10.6 °C7.8 °C83 %1029.8 hPa16.1 kmSouth (180°)5.6 km/hMostly Cloudy
12:56 PM11.7 °C7.8 °C77 %1029.1 hPa16.1 kmSE (140°)14.8 km/hMostly Cloudy
1:56 PM11.7 °C6.7 °C71 %1028.8 hPa16.1 kmSouth (170°)7.4 km/hMostly Cloudy
2:56 PM12.8 °C6.1 °C64 %1028.4 hPa16.1 kmVariable5.6 km/hMostly Cloudy
3:03 PM13 °C6 °C63 %1028.1 hPa16.1 kmWSW (240°)7.4 km/hOvercast
3:56 PM12.2 °C5.6 °C64 %1028.1 hPa16.1 kmSSW (210°)9.3 km/hMostly Cloudy
4:56 PM11.7 °C6.1 °C69 %1027.8 hPa16.1 kmSouth (190°)7.4 km/hOvercast
5:56 PM10.6 °C6.7 °C77 %1027.8 hPa16.1 kmSouth (170°)7.4 km/hOvercast
6:56 PM10.6 °C6.1 °C74 %1027.4 hPa16.1 kmSouth (190°)9.3 km/hOvercast
7:56 PM9.4 °C5.6 °C77 %1027.4 hPa16.1 kmSSE (150°)7.4 km/hOvercast
8:56 PM8.9 °C6.7 °C86 %1027.8 hPa16.1 kmSE (140°)9.3 km/hOvercast
10:56 PM8.3 °C6.7 °C90 %1027.8 hPa16.1 kmSSE (150°)5.6 km/hOvercast
11:56 PM7.8 °C6.7 °C93 %1027.8 hPa16.1 kmSE (140°)7.4 km/hOvercast
Hourly data recorded from KSLE, located 0 kilometers away from Whiteson, Oregon







STORIES FROM OUR PARTNERS